Weather in Shostka

Ukraine / Sumi District     51°51′57″N   33°28′33″E
temp.,
°C
wind,
m/s
gust,
m/s
humid.,
%
clouds,
%
prec.,
mm/h
press.,
hPa
HPBL,
m
12 april, mon
mon1200:00+7ene3665100 0.0 102894
03:00+6ene3770100 0.0 1028117
06:00+5ne41070100 0.0 1026205
09:00+8ene61069100 0.1 1025461
12:00+9ene5678100 0.4 1024412
15:00+15e5765100 0.5 10221102
18:00+15e3669100 0.0 1021195
21:00+13ene2279100 0.0 102124
13 april, tue
tue1300:00+12ese228198 0.0 102014
03:00+10se348699 0.0 102145
06:00+10se3788100 0.0 1021156
09:00+12se4881100 0.0 1021337
12:00+11se41086100 0.0 1021499
15:00+13se587998 0.0 1021694
18:00+12s3787100 0.0 1020426
21:00+10sse2493100 0.0 102096
14 april, wed
wed1400:00+10se359259 0.0 1019119
03:00+10se3592100 0.0 1019134
06:00+9se3490100 0.0 101899
09:00+11se3785100 0.0 1018326
12:00+11s367960 0.1 1018403
15:00+15s4560100 0.2 10161137
18:00+13s2375100 0.3 1015140
21:00+11se3585100 1.0 1016160
15 april, thu
thu1500:00+9sse349247 1.1 101679
03:00+8sse118884 1.2 101510
06:00+8ese2287100 0.0 101520
09:00+12e3477100 0.1 1015328
12:00+14ese4464100 0.8 1014723
15:00+14ese446386 1.9 10131050
18:00+13e446813 0.1 1013751
21:00+10ene349018 0.1 101355
16 april, fri
fri1600:00+9e349175 0.0 101261
03:00+9ese2391100 0.1 101277
06:00+8se2395100 1.9 101298
09:00+9e369371 3.1 1012315
12:00+12se567050 0.7 10131074
15:00+12sse566968 1.8 1013963
18:00+11sse5872100 0.1 1015609
21:00+8sse368828 0.1 1016227